Location: Namasale
(1.5000°N, 32.6167°E)
Time: 15:57:34
(UTC+00:00)

USA 234 - Pass Details

Date: 09 April 2020
Orbit: 1102 x 1106 km, 123.0° (Epoch: 14 May)

Event Time Altitude Azimuth Distance (km) Brightness Sun altitude
Rises 16:31:18 0° 41° (NE) 3,908 5.8 -9.8°
Reaches altitude 10° 16:33:47 10° 44° (NE) 2,953 5.2 -10.4°
Maximum altitude 16:40:16 69° 126° (SE) 1,172 3.2 -12.0°
Drops below altitude 10° 16:46:46 10° 209° (SSW) 2,962 5.8 -13.6°
Sets 16:49:16 0° 211° (SSW) 3,922 6.5 -14.2°
